Weather in Novoozerianka

Ukraine / Zhytomyr Region     51°12′48″N   28°00′06″E
temp.,
°C
wind,
m/s
gust,
m/s
humid.,
%
clouds,
%
prec.,
mm/h
press.,
hPa
HPBL,
m
15 may, sat
sat1500:00+12s2499100 3.9 1005107
03:00+12ssw2598100 6.7 1006172
06:00+11sw3797100 0.2 1006283
09:00+13sw368590 0.2 1008480
12:00+17ssw446362 0.1 10081367
15:00+18sw446290 0.3 10091339
18:00+15w457383 0.1 1009644
21:00+13wsw2588100 0.1 1011159
16 may, sun
sun1600:00+13wsw2386100 0.0 101173
03:00+10sw25955 0.1 101293
06:00+9ssw119346 0.0 101224
09:00+15sse3469100 0.0 1012427
12:00+19sse465464 0.0 10111153
15:00+21sse5757100 0.4 10101572
18:00+20se486867 0.8 10081093
21:00+14se3109198 2.6 1008188
17 may, mon
mon1700:00+13s299589 0.6 1008210
03:00+12ssw2498100 1.3 100886
06:00+12wnw2498100 0.1 1008123
09:00+14w2285100 0.1 1009440
12:00+15n1181100 0.1 1008410
15:00+18wnw336677 0.7 10071163
18:00+20nnw2351100 0.1 10061564
21:00+14nne228368 0.1 100616
18 may, tue
tue1800:00+11ne11940 0.0 100710
03:00+10wnw11945 0.0 100712
06:00+10w2395100 0.0 100760
09:00+14wnw3480100 0.0 1007369
12:00+16w3472100 0.2 1008831
15:00+17w3366100 0.8 1008944
18:00+16nw3480100 1.9 1007572
21:00+12wnw229099 2.6 100816
19 may, wed
wed1900:00+10wnw259392 0.0 1009113
03:00+9nnw31095100 0.0 1009227
06:00+9nw2694100 0.0 1010166
09:00+13nw347788 0.0 1011500
12:00+18nnw345240 0.1 10111765
15:00+17nw2351100 0.1 10101143
18:00+16nnw3658100 0.0 1010471
21:00+13n2776100 0.2 1011155